Location: Bukovany
(49.8234°N, 14.6297°E)
Time: 05:47:26
(UTC+00:00)

CZ-4C R/B - Pass Details

Date: 17 November 2025
Orbit: 486 x 1493 km, 63.4° (Epoch: 16 December)

Event Time Altitude Azimuth Distance (km) Brightness Sun altitude
Rises 18:16:07 0° 297° (WNW) 3,173 6.2 -28.9°
Reaches altitude 10° 18:18:47 10° 312° (NW) 2,406 5.2 -29.3°
Maximum altitude 18:23:14 23° 4° (N) 1,894 4.0 -30.0°
Enters shadow 18:23:23 23° 7° (N) 1,902 4.0 -30.1°
